Weather History for KVKY - February, 2014

Change the Weather History Date:

Monday, February 24, 2014

  Actual Average Record
Temperature  
Mean Temperature 64 °F -  
Max Temperature 66 °F - - ()
Min Temperature 62 °F - - ()
Degree Days  
Heating Degree Days 1    
Growing Degree Days 14 (Base 50)    
Moisture  
Dew Point 63 °F    
Average Humidity 96    
Maximum Humidity 100    
Minimum Humidity 83    
Precipitation  
Precipitation 0.00 in - - ()
Sea Level Pressure  
Sea Level Pressure 30.05 in    
Wind  
Wind Speed 12 mph (NE)    
Max Wind Speed 23 mph    
Max Gust Speed 22 mph    
Visibility 8 miles    
Events Fog    
Averages and records for this station are not official NWS values.
T = Trace of Precipitation, MM = Missing Value Source: NWS Daily Summary

Daily Weather History Graph

Daily Weather History Graph

Search for Another Location

Airport or City:

Trip Planner

Search our weather history database for the weather conditions in past years. The results will help you decide how hot, cold, wet, or windy it might be!

Date:

Astronomy

Feb. 24, 2014 Rise Set
Actual Time 6:24 AM CST 5:49 PM CST
Civil Twilight 6:00 AM CST 6:13 PM CST
Nautical Twilight 5:32 AM CST 6:41 PM CST
Astronomical Twilight 5:05 AM CST 7:09 PM CST
Moon 2:08 AM CST (2/24) 1:04 PM CST (2/24)
Length of Visible Light 12h 13m
Length of Day
11h 25m
Waning Crescent, 28% of the Moon is Illuminated
Feb 24
Waning Crescent
Mar 1
New
Mar 8
First Quarter
Mar 16
Full
Mar 23
Last Quarter

Hourly Weather History & Observations

Time (CST) Temp. Dew Point Humidity Pressure Visibility Wind Dir Wind Speed Gust Speed Precip Events Conditions
12:15 AM 66.2 °F 64.4 °F 94% 30.02 in 10.0 mi NNE 10.4 mph - N/A   Overcast
12:35 AM 66.2 °F 64.4 °F 94% 30.00 in 10.0 mi ENE 6.9 mph - N/A   Overcast
12:55 AM 64.4 °F 64.4 °F 100% 30.00 in 10.0 mi ENE 5.8 mph - N/A   Overcast
1:15 AM 64.4 °F 64.4 °F 100% 30.00 in 10.0 mi ENE 5.8 mph - N/A   Overcast
1:35 AM 64.4 °F 64.4 °F 100% 29.99 in 10.0 mi East 4.6 mph - N/A   Overcast
1:55 AM 64.4 °F 64.4 °F 100% 29.99 in 10.0 mi ENE 4.6 mph - N/A   Overcast
2:15 AM 64.4 °F 64.4 °F 100% 29.99 in 10.0 mi NE 5.8 mph - N/A   Overcast
2:35 AM 64.4 °F 64.4 °F 100% 29.99 in 10.0 mi NNE 6.9 mph - N/A   Overcast
2:55 AM 64.4 °F 64.4 °F 100% 29.99 in 10.0 mi NE 8.1 mph - N/A   Overcast
3:15 AM 64.4 °F 64.4 °F 100% 29.99 in 10.0 mi NE 9.2 mph - N/A   Overcast
3:35 AM 64.4 °F 64.4 °F 100% 29.99 in 10.0 mi NE 10.4 mph - N/A   Overcast
3:55 AM 64.4 °F 64.4 °F 100% 30.00 in 10.0 mi NE 9.2 mph - N/A   Overcast
4:15 AM 64.4 °F 64.4 °F 100% 30.00 in 10.0 mi NE 8.1 mph - N/A   Overcast
4:35 AM 64.4 °F 64.4 °F 100% 30.01 in 10.0 mi ENE 10.4 mph - N/A   Overcast
4:55 AM 64.4 °F 64.4 °F 100% 30.01 in 10.0 mi ENE 10.4 mph - N/A   Overcast
5:15 AM 64.4 °F 64.4 °F 100% 30.02 in 10.0 mi NE 8.1 mph - N/A   Mostly Cloudy
5:35 AM 64.4 °F 64.4 °F 100% 30.03 in 10.0 mi NE 11.5 mph - N/A   Partly Cloudy
5:55 AM 64.4 °F 64.4 °F 100% 30.05 in 10.0 mi NE 13.8 mph - N/A   Mostly Cloudy
6:15 AM 64.4 °F 62.6 °F 94% 30.05 in 0.2 mi NE 15.0 mph - N/A Fog Fog
6:35 AM 62.6 °F 62.6 °F 100% 30.04 in 0.2 mi ENE 13.8 mph - N/A Fog Fog
6:55 AM 62.6 °F 62.6 °F 100% 30.06 in 0.2 mi NE 13.8 mph - N/A Fog Fog
7:15 AM 62.6 °F 62.6 °F 100% 30.06 in 0.2 mi NE 15.0 mph - N/A Fog Fog
7:35 AM 62.6 °F 62.6 °F 100% 30.07 in 1.0 mi NE 15.0 mph - N/A   Overcast
7:55 AM 62.6 °F 62.6 °F 100% 30.08 in 2.5 mi NE 16.1 mph - N/A   Overcast
8:15 AM 62.6 °F 62.6 °F 100% 30.09 in 0.5 mi NE 17.3 mph - N/A Fog Fog
8:35 AM 62.6 °F 60.8 °F 94% 30.09 in 0.2 mi ENE 18.4 mph - N/A Fog Fog
8:55 AM 62.6 °F 62.6 °F 100% 30.09 in 0.2 mi NE 19.6 mph - N/A Fog Fog
9:15 AM 62.6 °F 60.8 °F 94% 30.10 in 2.0 mi NE 19.6 mph - N/A   Overcast
9:35 AM 62.6 °F 60.8 °F 94% 30.10 in 10.0 mi ENE 20.7 mph - N/A   Overcast
9:55 AM 62.6 °F 62.6 °F 100% 30.11 in 10.0 mi ENE 20.7 mph - N/A   Mostly Cloudy
10:15 AM 62.6 °F 62.6 °F 100% 30.11 in 10.0 mi ENE 23.0 mph - N/A   Mostly Cloudy
10:35 AM 62.6 °F 62.6 °F 100% 30.11 in 10.0 mi ENE 23.0 mph - N/A   Scattered Clouds
10:55 AM 64.4 °F 62.6 °F 94% 30.11 in - ENE 21.9 mph - N/A   Partly Cloudy
11:15 AM 64.4 °F 60.8 °F 88% 30.10 in 10.0 mi ENE 19.6 mph - N/A   Scattered Clouds
11:35 AM 64.4 °F 60.8 °F 88% 30.10 in 10.0 mi ENE 19.6 mph - N/A   Mostly Cloudy
11:55 AM 64.4 °F 60.8 °F 88% 30.10 in 10.0 mi ENE 20.7 mph - N/A   Overcast
12:15 PM 64.4 °F 60.8 °F 88% 30.09 in 10.0 mi ENE 21.9 mph - N/A   Overcast
12:35 PM 64.4 °F 60.8 °F 88% 30.08 in 10.0 mi ENE 20.7 mph - N/A   Overcast
12:55 PM 64.4 °F 59.0 °F 83% 30.07 in 10.0 mi ENE 19.6 mph - N/A   Overcast
1:15 PM 64.4 °F 59.0 °F 83% 30.06 in 10.0 mi ENE 18.4 mph - N/A   Overcast
1:20 PM 64.4 °F 59.0 °F 83% 30.06 in 10.0 mi ENE 16.1 mph 21.9 mph N/A   Overcast